Porto Alegre, Brazil

6:26 AM -03 on July 21, 2017 (GMT -0300)
Salgado Filho International

Weather History for SBPA - February, 2014

Change the Weather History Date:

Wednesday, February 5, 2014

  Actual Average Record
Temperature  
Mean Temperature 90 °F -  
Max Temperature 102 °F 83 °F 102 °F (2014)
Min Temperature 77 °F 67 °F 60 °F (2008)
Cooling Degree Days 24    
Growing Degree Days 40 (Base 50)    
Moisture  
Dew Point 73 °F    
Average Humidity 62    
Maximum Humidity 89    
Minimum Humidity 26    
Precipitation  
Precipitation 0.00 in - - ()
Sea Level Pressure  
Sea Level Pressure 29.83 in    
Wind  
Wind Speed 5 mph ()    
Max Wind Speed 14 mph    
Max Gust Speed -    
Visibility 7.0 miles    
Events      
Averages and records for this station are not official NWS values.
T = Trace of Precipitation, MM = Missing Value Source: Averaged Metar Reports

Daily Weather History Graph

Daily Weather History Graph

Search for Another Location

Airport or City:

Trip Planner

Search our weather history database for the weather conditions in past years. The results will help you decide how hot, cold, wet, or windy it might be!

Date:

Astronomy

Feb. 05, 2014 Rise Set
Actual Time 6:56 AM -02 8:20 PM -02
Civil Twilight 6:31 AM -02 8:45 PM -02
Nautical Twilight 6:00 AM -02 9:16 PM -02
Astronomical Twilight 5:29 AM -02 9:47 PM -02
Moon 12:53 PM -02 (2/5) No Moon Set
Length of Visible Light 14h 14m
Length of Day
13h 23m
Waxing Crescent, 37% of the Moon is Illuminated
Feb 5
Waxing Crescent
Feb 6
First Quarter
Feb 14
Full
Feb 22
Last Quarter
Mar 1
New

Hourly Weather History & Observations

Time (-02) Temp. Heat Index Dew Point Humidity Pressure Visibility Wind Dir Wind Speed Gust Speed Precip Events Conditions
12:00 AM 82.4 °F 89.5 °F 75.2 °F 79% 29.86 in - ENE 5.8 mph - N/A   Clear
1:00 AM 80.6 °F 85.4 °F 73.4 °F 79% 29.86 in - East 5.8 mph - N/A   Clear
2:00 AM 80.6 °F 86.2 °F 75.2 °F 84% 29.83 in - NE 4.6 mph - N/A   Clear
3:00 AM 78.8 °F - 75.2 °F 89% 29.83 in - ENE 2.3 mph - N/A   Clear
4:00 AM 79 °F - 74 °F 81% 29.83 in 12 mi ENE 3.5 mph - -  
4:00 AM 78.8 °F - 75.2 °F 89% 29.83 in - ENE 3.5 mph - N/A   Clear
5:00 AM 77.0 °F - 73.4 °F 89% 29.80 in - Calm Calm - N/A   Clear
6:00 AM 77.0 °F - 73.4 °F 89% 29.83 in - ENE 2.3 mph - N/A   Clear
7:00 AM 77.0 °F - 73.4 °F 89% 29.83 in - Calm Calm - N/A   Clear
8:00 AM 80.6 °F 85.4 °F 73.4 °F 79% 29.86 in 5.0 mi ENE 2.3 mph - N/A   Unknown
9:00 AM 86.0 °F 93.4 °F 73.4 °F 66% 29.86 in 3.7 mi Calm Calm - N/A   Unknown
10:00 AM 89 °F - 72 °F 49% 29.88 in 5 mi NNW 5.8 mph - -   Haze
10:00 AM 89.6 °F 98.2 °F 73.4 °F 59% 29.89 in 5.0 mi NNW 5.8 mph - N/A   Unknown
11:00 AM 93.2 °F 98.8 °F 69.8 °F 46% 29.86 in - NW 13.8 mph - N/A   Clear
12:00 PM 93.2 °F 102.4 °F 73.4 °F 52% 29.86 in - NW 5.8 mph - N/A   Clear
1:00 PM 95.0 °F 107.4 °F 75.2 °F 53% 29.86 in - West 8.1 mph - N/A   Clear
2:00 PM 96.8 °F 109.6 °F 75.2 °F 50% 29.83 in 6.2 mi West 8.1 mph - N/A   Partly Cloudy
3:00 PM 98.6 °F 109.2 °F 73.4 °F 44% 29.83 in 6.2 mi West 9.2 mph - N/A   Partly Cloudy
4:00 PM 101 °F - 71 °F 29% 29.81 in 12 mi WNW 8.1 mph - -   Scattered Clouds
4:00 PM 100.4 °F 109.3 °F 71.6 °F 39% 29.80 in 6.2 mi WNW 8.1 mph - N/A   Partly Cloudy
5:00 PM 102.2 °F 108.4 °F 68.0 °F 33% 29.77 in 6.2 mi West 6.9 mph - N/A   Partly Cloudy
6:00 PM 102.2 °F 104.2 °F 62.6 °F 27% 29.77 in 6.2 mi West 5.8 mph - N/A   Partly Cloudy
7:00 PM 102.2 °F 103.6 °F 60.8 °F 26% 29.77 in 6.2 mi West 3.5 mph - N/A   Partly Cloudy
8:00 PM 95.0 °F 109.7 °F 77.0 °F 56% 29.77 in 6.2 mi East 10.4 mph - N/A   Partly Cloudy
9:00 PM 91.4 °F 105.1 °F 77.0 °F 63% 29.80 in - East 12.7 mph - N/A   Clear
10:00 PM 88 °F - 76 °F 61% 29.81 in 12 mi East 9.2 mph - -  
10:00 PM 87.8 °F 99.7 °F 77.0 °F 70% 29.80 in - East 9.2 mph - N/A   Clear
11:00 PM 86.0 °F 96.9 °F 77.0 °F 74% 29.80 in - East 9.2 mph - N/A   Clear